Weather History for KEZF - May, 2013

Change the Weather History Date:

Friday, May 3, 2013

  Actual Average (KNYG) Record (KNYG)
Temperature  
Mean Temperature 56 °F -  
Max Temperature 70 °F 70 °F 84 °F (2001)
Min Temperature 43 °F 50 °F 37 °F (2005)
Degree Days  
Heating Degree Days 8    
Growing Degree Days 6 (Base 50)    
Moisture  
Dew Point 45 °F    
Average Humidity 71    
Maximum Humidity 100    
Minimum Humidity 37    
Precipitation  
Precipitation 0.00 in - - ()
Sea Level Pressure  
Sea Level Pressure 30.32 in    
Wind  
Wind Speed 4 mph (East)    
Max Wind Speed 15 mph    
Max Gust Speed 22 mph    
Visibility 10 miles    
Events Fog    
Averages and records for this station are not official NWS values.
T = Trace of Precipitation, MM = Missing Value Source: NWS Daily Summary

Daily Weather History Graph

Daily Weather History Graph

Search for Another Location

Airport or City:

Trip Planner

Search our weather history database for the weather conditions in past years. The results will help you decide how hot, cold, wet, or windy it might be!

Date:

Astronomy

May. 03, 2013 Rise Set
Actual Time 6:10 AM EDT 8:03 PM EDT
Civil Twilight 5:41 AM EDT 8:31 PM EDT
Nautical Twilight 5:07 AM EDT 9:06 PM EDT
Astronomical Twilight 4:29 AM EDT 9:44 PM EDT
Moon 2:28 AM EDT (5/3) 2:00 PM EDT (5/3)
Length of Visible Light 14h 50m
Length of Day
13h 52m
Last Quarter, 37% of the Moon is Illuminated
May 3
Last Quarter
May 9
New
May 18
First Quarter
May 25
Full
May 31
Last Quarter

Hourly Weather History & Observations

Time (EDT) Temp. Dew Point Humidity Pressure Visibility Wind Dir Wind Speed Gust Speed Precip Events Conditions
12:15 AM 49.5 °F 49.1 °F 99% 30.31 in 10.0 mi Calm Calm - N/A   Clear
12:35 AM 48.9 °F 48.6 °F 99% 30.31 in 10.0 mi Calm Calm - N/A   Clear
12:55 AM 48.4 °F 48.2 °F 99% 30.31 in 10.0 mi Calm Calm - N/A   Clear
1:15 AM 47.5 °F 47.5 °F 100% 30.30 in 10.0 mi Calm Calm - N/A   Clear
1:35 AM 47.5 °F 47.5 °F 100% 30.30 in 1.2 mi Calm Calm - N/A   Mostly Cloudy
1:55 AM 47.1 °F 47.1 °F 100% 30.29 in 0.2 mi Calm Calm - N/A Fog Fog
2:15 AM 46.6 °F 46.6 °F 100% 30.28 in 0.5 mi Calm Calm - N/A Fog Fog
2:35 AM 46.0 °F 46.0 °F 100% 30.28 in 3.0 mi Calm Calm - N/A   Mist
2:55 AM 46.4 °F 46.4 °F 100% 30.28 in 10.0 mi Calm Calm - N/A   Unknown
3:15 AM 44.8 °F 44.8 °F 100% 30.28 in 10.0 mi Calm Calm - N/A   Clear
3:35 AM 44.2 °F 44.2 °F 100% 30.30 in 10.0 mi Calm Calm - N/A   Clear
3:55 AM 44.6 °F 44.6 °F 100% 30.30 in 10.0 mi Calm Calm - N/A   Unknown
4:15 AM 44.1 °F 44.1 °F 100% 30.30 in 10.0 mi Calm Calm - N/A   Unknown
4:35 AM 43.9 °F 43.9 °F 100% 30.30 in 10.0 mi Calm Calm - N/A   Unknown
4:55 AM 43.9 °F 43.9 °F 100% 30.31 in 10.0 mi Calm Calm - N/A   Unknown
5:15 AM 44.2 °F 44.2 °F 100% 30.32 in 10.0 mi Calm Calm - N/A   Clear
5:35 AM 43.7 °F 43.7 °F 100% 30.32 in 10.0 mi Calm Calm - N/A   Clear
5:55 AM 43.7 °F 43.7 °F 100% 30.32 in 10.0 mi Calm Calm - N/A   Unknown
6:15 AM 43.7 °F 43.7 °F 100% 30.33 in 10.0 mi Calm Calm - N/A   Unknown
6:35 AM 44.2 °F 44.2 °F 100% 30.33 in 10.0 mi Calm Calm - N/A   Unknown
6:55 AM 46.6 °F 46.6 °F 100% 30.34 in 10.0 mi NW 3.5 mph - N/A   Unknown
7:15 AM 49.1 °F 49.1 °F 100% 30.34 in 10.0 mi Calm Calm - N/A   Overcast
7:35 AM 51.3 °F 50.9 °F 99% 30.35 in 10.0 mi Calm Calm - N/A   Overcast
7:55 AM 53.2 °F 51.8 °F 95% 30.35 in 10.0 mi NE 3.5 mph - N/A   Unknown
8:15 AM 55.2 °F 51.8 °F 88% 30.35 in 10.0 mi East 5.8 mph - N/A   Unknown
8:35 AM 55.8 °F 50.7 °F 83% 30.35 in 10.0 mi ENE 10.4 mph - N/A   Unknown
8:55 AM 57.6 °F 49.8 °F 75% 30.35 in 10.0 mi NE 5.8 mph - N/A   Unknown
9:15 AM 59.2 °F 49.1 °F 69% 30.35 in 10.0 mi NE 6.9 mph - N/A   Unknown
9:35 AM 60.6 °F 49.8 °F 68% 30.35 in 10.0 mi ENE 10.4 mph - N/A   Unknown
9:55 AM 61.0 °F 49.3 °F 65% 30.36 in 10.0 mi ENE 8.1 mph - N/A   Unknown
10:15 AM 62.8 °F 48.7 °F 60% 30.36 in 10.0 mi ENE 9.2 mph - N/A   Unknown
10:35 AM 64.0 °F 47.7 °F 55% 30.36 in 10.0 mi ENE 6.9 mph - N/A   Unknown
10:55 AM 63.9 °F 45.0 °F 50% 30.36 in 10.0 mi East 11.5 mph 17.3 mph N/A   Unknown
11:15 AM 65.7 °F 45.5 °F 48% 30.36 in 10.0 mi ESE 11.5 mph 17.3 mph N/A   Unknown
11:35 AM 66.7 °F 45.9 °F 47% 30.35 in 10.0 mi East 3.5 mph - N/A   Unknown
11:55 AM 66.9 °F 45.1 °F 45% 30.34 in 10.0 mi East 12.7 mph 16.1 mph N/A   Unknown
12:15 PM 67.8 °F 45.7 °F 45% 30.34 in 10.0 mi East 4.6 mph - N/A   Unknown
12:35 PM 68.0 °F 44.6 °F 43% 30.33 in 10.0 mi ENE 9.2 mph 17.3 mph N/A   Clear
12:55 PM 69.8 °F 46.8 °F 44% 30.32 in 10.0 mi SE 4.6 mph - N/A   Clear
1:35 PM 69.4 °F 42.6 °F 38% 30.31 in 10.0 mi ENE 8.1 mph - N/A   Clear
1:55 PM 69.6 °F 42.8 °F 38% 30.31 in 10.0 mi ESE 8.1 mph 16.1 mph N/A   Clear
2:15 PM 69.6 °F 42.4 °F 37% 30.31 in 10.0 mi ENE 9.2 mph - N/A   Clear
2:35 PM 70.2 °F 42.4 °F 37% 30.30 in 10.0 mi ENE 10.4 mph - N/A   Clear
2:55 PM 68.9 °F 41.5 °F 37% 30.30 in 10.0 mi East 9.2 mph 20.7 mph N/A   Clear
3:15 PM 68.2 °F 41.5 °F 38% 30.29 in 10.0 mi ESE 13.8 mph 19.6 mph N/A   Clear
3:35 PM 67.5 °F 42.8 °F 41% 30.29 in 10.0 mi East 11.5 mph - N/A   Clear
3:55 PM 66.9 °F 43.3 °F 42% 30.29 in 10.0 mi ESE 12.7 mph 17.3 mph N/A   Clear
4:15 PM 66.2 °F 43.2 °F 43% 30.29 in 10.0 mi East 15.0 mph 20.7 mph N/A   Clear
4:35 PM 65.5 °F 42.3 °F 43% 30.29 in 10.0 mi ESE 12.7 mph 21.9 mph N/A   Clear
4:55 PM 64.0 °F 40.6 °F 42% 30.29 in 10.0 mi East 15.0 mph 19.6 mph N/A   Unknown
5:15 PM 63.7 °F 41.2 °F 44% 30.30 in 10.0 mi East 13.8 mph 21.9 mph N/A   Unknown
5:35 PM 63.9 °F 40.8 °F 43% 30.30 in 10.0 mi ESE 11.5 mph 16.1 mph N/A   Unknown
5:55 PM 62.8 °F 40.6 °F 44% 30.30 in 10.0 mi East 11.5 mph 17.3 mph N/A   Unknown
6:15 PM 61.2 °F 41.4 °F 48% 30.30 in 10.0 mi ESE 10.4 mph 16.1 mph N/A   Unknown
6:35 PM 60.4 °F 42.8 °F 52% 30.31 in 10.0 mi East 13.8 mph - N/A   Unknown
6:55 PM 59.4 °F 43.0 °F 55% 30.31 in 10.0 mi East 9.2 mph - N/A   Unknown
7:15 PM 58.1 °F 42.3 °F 56% 30.32 in 10.0 mi East 10.4 mph 16.1 mph N/A   Unknown
7:35 PM 57.2 °F 42.8 °F 59% 30.32 in 10.0 mi East 6.9 mph - N/A   Unknown
7:55 PM 55.9 °F 42.4 °F 61% 30.32 in 10.0 mi East 5.8 mph - N/A   Unknown
8:15 PM 55.2 °F 42.3 °F 62% 30.32 in 10.0 mi East 4.6 mph - N/A   Unknown
8:35 PM 54.5 °F 42.4 °F 64% 30.32 in 10.0 mi East 3.5 mph - N/A   Unknown
8:55 PM 53.2 °F 41.9 °F 65% 30.32 in 10.0 mi East 3.5 mph - N/A   Unknown
9:15 PM 52.7 °F 41.7 °F 66% 30.33 in 10.0 mi ENE 4.6 mph - N/A   Unknown
9:35 PM 52.0 °F 41.4 °F 67% 30.33 in 10.0 mi East 3.5 mph - N/A   Unknown
9:55 PM 49.8 °F 42.6 °F 76% 30.34 in 10.0 mi Calm Calm - N/A   Unknown
10:35 PM 47.3 °F 42.8 °F 84% 30.33 in 10.0 mi Calm Calm - N/A   Unknown
10:55 PM 46.6 °F 42.6 °F 86% 30.32 in 10.0 mi Calm Calm - N/A   Unknown
11:15 PM 46.2 °F 42.3 °F 86% 30.32 in 10.0 mi Calm Calm - N/A   Unknown
11:35 PM 48.0 °F 41.5 °F 78% 30.32 in 10.0 mi ENE 4.6 mph - N/A   Unknown
11:55 PM 49.1 °F 41.5 °F 75% 30.32 in 10.0 mi ENE 6.9 mph - N/A   Unknown